Highgate, VT

4:16 AM EDT on August 24, 2019 (GMT -0400)
Franklin County State

Weather History for KFSO - July, 2019

Change the Weather History Date:

Sunday, July 21, 2019

  Actual Average (WUND) Record (WUND)
Temperature  
Mean Temperature 80 °F -  
Max Temperature 89 °F - - (-1)
Min Temperature 71 °F - - (-1)
Cooling Degree Days 15    
Growing Degree Days 30 (Base 50)    
Moisture  
Dew Point 69 °F    
Average Humidity 66    
Maximum Humidity 80    
Minimum Humidity 42    
Precipitation  
Precipitation 0.00 in - - ()
Sea Level Pressure  
Sea Level Pressure 29.72 in    
Wind  
Wind Speed 4 mph (West)    
Max Wind Speed 8 mph    
Max Gust Speed -    
Visibility 10 miles    
Events      
Averages and records for this station are not official NWS values.
T = Trace of Precipitation, MM = Missing Value Source: NWS Daily Summary

Daily Weather History Graph

Daily Weather History Graph

Search for Another Location

Airport or City:

Astronomy

Jul. 21, 2019 Rise Set
Actual Time 5:25 AM EDT 8:31 PM EDT
Civil Twilight 4:50 AM EDT 9:06 PM EDT
Nautical Twilight 4:05 AM EDT 9:51 PM EDT
Astronomical Twilight 3:10 AM EDT 10:45 PM EDT
Moon 11:13 PM EDT (7/21) 9:52 AM EDT (7/21)
Length of Visible Light 16h 15m
Length of Day
15h 05m
Waning Gibbous, 80% of the Moon is Illuminated
Jul 21
Waning Gibbous
Jul 24
Last Quarter
Jul 31
New
Aug 7
First Quarter
Aug 15
Full

Hourly Weather History & Observations

Time (EDT) Temp. Heat Index Dew Point Humidity Pressure Visibility Wind Dir Wind Speed Gust Speed Precip Events Conditions
12:15 AM 83.7 °F 92.0 °F 75.7 °F 77% 29.67 in 10.0 mi SSW 5.8 mph - N/A   Scattered Clouds
12:35 AM 83.5 °F 91.6 °F 75.7 °F 77% 29.67 in 10.0 mi SSW 6.9 mph - N/A   Clear
12:56 AM 83.1 °F 91.0 °F 75.6 °F 78% 29.67 in 10.0 mi South 6.9 mph - N/A   Scattered Clouds
1:15 AM 82.4 °F 89.5 °F 75.4 °F 79% 29.67 in 10.0 mi South 4.6 mph - N/A   Scattered Clouds
1:35 AM 82.2 °F 89.1 °F 75.0 °F 79% 29.67 in 10.0 mi SSW 5.8 mph - N/A   Scattered Clouds
1:55 AM 82.0 °F 88.4 °F 74.7 °F 78% 29.67 in 10.0 mi SW 3.5 mph - N/A   Mostly Cloudy
2:16 AM 82.0 °F 88.1 °F 74.3 °F 77% 29.66 in 10.0 mi Calm Calm - N/A   Overcast
2:36 AM 81.5 °F 87.4 °F 74.3 °F 79% 29.66 in 10.0 mi South 3.5 mph - N/A   Mostly Cloudy
2:56 AM 81.0 °F 86.2 °F 73.8 °F 79% 29.66 in 10.0 mi SW 4.6 mph - N/A   Scattered Clouds
3:15 AM 82.0 °F 87.9 °F 73.9 °F 76% 29.66 in 10.0 mi SW 5.8 mph - N/A   Scattered Clouds
3:36 AM 82.2 °F 88.3 °F 73.9 °F 76% 29.66 in 10.0 mi SSW 4.6 mph - N/A   Mostly Cloudy
3:55 AM 81.9 °F 87.7 °F 73.9 °F 77% 29.65 in 10.0 mi SW 3.5 mph - N/A   Scattered Clouds
4:16 AM 81.5 °F 87.4 °F 74.3 °F 79% 29.66 in 10.0 mi SW 4.6 mph - N/A   Clear
4:35 AM 81.1 °F 86.8 °F 74.3 °F 80% 29.65 in 10.0 mi SW 4.6 mph - N/A   Scattered Clouds
4:56 AM 81.1 °F 86.6 °F 73.9 °F 79% 29.65 in 10.0 mi SSW 3.5 mph - N/A   Mostly Cloudy
5:16 AM 81.0 °F 86.2 °F 73.9 °F 79% 29.65 in 10.0 mi SW 3.5 mph - N/A   Mostly Cloudy
5:36 AM 80.6 °F 85.5 °F 73.8 °F 80% 29.67 in 10.0 mi WSW 4.6 mph - N/A   Overcast
5:55 AM 80.8 °F 85.2 °F 72.7 °F 76% 29.67 in 10.0 mi Calm Calm - N/A   Overcast
6:15 AM 80.6 °F 85.0 °F 72.9 °F 77% 29.68 in 10.0 mi Calm Calm - N/A   Mostly Cloudy
6:36 AM 80.2 °F 84.3 °F 72.3 °F 77% 29.68 in 10.0 mi WSW 3.5 mph - N/A   Mostly Cloudy
6:55 AM 80.2 °F 84.0 °F 71.6 °F 75% 29.68 in 10.0 mi Calm Calm - N/A   Overcast
7:16 AM 80.2 °F 84.0 °F 71.8 °F 75% 29.68 in 10.0 mi Calm Calm - N/A   Overcast
7:36 AM 80.8 °F 84.7 °F 71.2 °F 73% 29.68 in 10.0 mi West 6.9 mph - N/A   Overcast
7:55 AM 80.8 °F 84.6 °F 71.1 °F 72% 29.68 in 10.0 mi West 5.8 mph - N/A   Overcast
8:15 AM 80.8 °F 84.7 °F 71.4 °F 73% 29.69 in 10.0 mi West 6.9 mph - N/A   Overcast
8:35 AM 80.6 °F 84.6 °F 71.6 °F 74% 29.69 in 10.0 mi West 4.6 mph - N/A   Overcast
8:55 AM 79.7 °F - 71.8 °F 77% 29.69 in 10.0 mi West 4.6 mph - N/A   Overcast
9:16 AM 79.3 °F - 72.0 °F 78% 29.69 in 10.0 mi West 3.5 mph - N/A   Overcast
9:35 AM 80.6 °F 84.9 °F 72.3 °F 76% 29.69 in 10.0 mi WNW 4.6 mph - N/A   Overcast
9:55 AM 80.2 °F 84.3 °F 72.5 °F 77% 29.69 in 10.0 mi West 5.8 mph - N/A   Overcast
10:16 AM 80.2 °F 84.6 °F 73.2 °F 79% 29.69 in 10.0 mi NW 4.6 mph - N/A   Overcast
10:36 AM 81.3 °F 86.5 °F 73.4 °F 77% 29.70 in 10.0 mi NNW 6.9 mph - N/A   Overcast
10:56 AM 79.9 °F - 73.4 °F 80% 29.71 in 10.0 mi NNW 5.8 mph - N/A   Overcast
11:16 AM 80.4 °F 84.8 °F 73.0 °F 78% 29.71 in 10.0 mi West 3.5 mph - N/A   Overcast
11:36 AM 81.7 °F 86.9 °F 73.0 °F 75% 29.72 in 10.0 mi NNW 5.8 mph - N/A   Mostly Cloudy
11:55 AM 82.2 °F 88.0 °F 73.6 °F 75% 29.72 in 10.0 mi NW 4.6 mph - N/A   Overcast
12:15 PM 83.7 °F 90.1 °F 73.4 °F 71% 29.72 in 10.0 mi NW 3.5 mph - N/A   Overcast
12:36 PM 84.9 °F 91.4 °F 73.0 °F 67% 29.72 in 10.0 mi NW 5.8 mph - N/A   Mostly Cloudy
12:55 PM 86.0 °F 93.0 °F 73.2 °F 65% 29.72 in 10.0 mi NNW 5.8 mph - N/A   Mostly Cloudy
1:16 PM 87.4 °F 91.2 °F 68.2 °F 53% 29.72 in 10.0 mi NNW 4.6 mph - N/A   Scattered Clouds
1:35 PM 88.3 °F 90.9 °F 66.6 °F 48% 29.72 in 10.0 mi WNW 6.9 mph - N/A   Scattered Clouds
1:55 PM 88.5 °F 90.8 °F 65.8 °F 47% 29.73 in 10.0 mi NW 6.9 mph - N/A   Scattered Clouds
2:15 PM 86.0 °F 88.5 °F 66.7 °F 52% 29.73 in 10.0 mi WNW 3.5 mph - N/A   Mostly Cloudy
2:35 PM 86.9 °F 88.3 °F 64.6 °F 47% 29.73 in 10.0 mi WNW 6.9 mph - N/A   Overcast
2:55 PM 85.1 °F 86.9 °F 65.1 °F 51% 29.73 in 10.0 mi West 5.8 mph - N/A   Overcast
3:16 PM 88.2 °F 90.3 °F 65.5 °F 47% 29.73 in 10.0 mi West 4.6 mph - N/A   Mostly Cloudy
3:36 PM 87.4 °F 89.5 °F 65.7 °F 48% 29.72 in 10.0 mi West 4.6 mph - N/A   Mostly Cloudy
3:56 PM 86.9 °F 88.3 °F 64.6 °F 47% 29.73 in 5.0 mi WNW 5.8 mph - N/A   Haze
4:15 PM 88.7 °F 89.4 °F 62.8 °F 42% 29.73 in 10.0 mi NW 6.9 mph - N/A   Scattered Clouds
4:35 PM 88.7 °F 89.8 °F 63.9 °F 43% 29.74 in 10.0 mi WNW 3.5 mph - N/A   Clear
4:55 PM 86.9 °F 88.6 °F 64.8 °F 48% 29.74 in 10.0 mi Calm Calm - N/A   Mostly Cloudy
5:15 PM 85.5 °F 87.4 °F 65.3 °F 51% 29.74 in 10.0 mi NW 3.5 mph - N/A   Mostly Cloudy
5:36 PM 87.4 °F 89.8 °F 66.4 °F 49% 29.74 in 10.0 mi NW 4.6 mph - N/A   Mostly Cloudy
5:55 PM 87.3 °F 88.3 °F 63.7 °F 45% 29.75 in 10.0 mi NNW 8.1 mph - N/A   Scattered Clouds
6:16 PM 86.5 °F 87.6 °F 63.7 °F 46% 29.75 in 10.0 mi WNW 5.8 mph - N/A   Clear
6:35 PM 86.4 °F 87.3 °F 63.5 °F 46% 29.75 in 10.0 mi WNW 4.6 mph - N/A   Clear
6:55 PM 85.8 °F 86.3 °F 62.2 °F 45% 29.76 in 10.0 mi NW 3.5 mph - N/A   Clear
7:16 PM 84.4 °F 84.6 °F 60.6 °F 45% 29.77 in 10.0 mi WNW 3.5 mph - N/A   Clear
7:35 PM 83.3 °F 83.7 °F 61.2 °F 47% 29.77 in 7.0 mi Calm Calm - N/A   Clear
7:56 PM 82.0 °F 83.1 °F 62.6 °F 52% 29.79 in 10.0 mi Calm Calm - N/A   Clear
8:16 PM 80.4 °F 81.7 °F 62.8 °F 55% 29.79 in 10.0 mi Calm Calm - N/A   Clear
8:36 PM 79.2 °F - 63.1 °F 58% 29.79 in 10.0 mi Calm Calm - N/A   Clear
8:55 PM 78.8 °F - 62.6 °F 57% 29.81 in 10.0 mi WNW 3.5 mph - N/A   Clear
9:16 PM 78.1 °F - 62.6 °F 59% 29.82 in 10.0 mi Calm Calm - N/A   Clear
9:36 PM 76.3 °F - 62.8 °F 63% 29.82 in 7.0 mi Calm Calm - N/A   Clear
9:56 PM 75.2 °F - 62.6 °F 65% 29.83 in 10.0 mi Calm Calm - N/A   Clear
10:15 PM 74.5 °F - 62.8 °F 67% 29.84 in 10.0 mi Calm Calm - N/A   Scattered Clouds
10:35 PM 72.5 °F - 64.9 °F 77% 29.84 in 10.0 mi Calm Calm - N/A   Overcast
10:55 PM 73.9 °F - 63.7 °F 70% 29.84 in 10.0 mi Calm Calm - N/A   Overcast
11:15 PM 74.3 °F - 62.6 °F 67% 29.84 in 10.0 mi Calm Calm - N/A   Scattered Clouds
11:36 PM 72.7 °F - 62.6 °F 71% 29.84 in 10.0 mi Calm Calm - N/A   Clear
11:55 PM 71.2 °F - 62.8 °F 75% 29.85 in 10.0 mi NNW 3.5 mph - N/A   Scattered Clouds